IU2GZQ-13 Weather Reports


time (UTC)temp
C
wind
direction
speed
KPH
gust
KPH
rain 1hr
cm
rain 24hr
cm
rain mn
cm
humidity
%
barometer
mb
20260507034030 12 349 0.0 1.6 0.00 1.40 0.00 93 1012.4
20260507033207 12 0.0 0.0 0.00 1.40 0.00 93 1012.4
20260507032044 12 0.0 0.0 0.00 1.40 0.00 93 1012.2
20260507030042 12 109 3.2 4.8 0.00 1.40 0.00 93 1012.3
20260507025200 12 97 3.2 4.8 0.00 1.40 0.00 92 1012.2
20260507024055 12 85 3.2 4.8 0.00 1.40 0.00 92 1012.2
20260507023031 12 117 1.6 4.8 0.00 1.40 0.00 91 1012.1
20260507022148 12 89 3.2 6.4 0.00 1.40 0.00 91 1012.0
20260507021125 12 88 3.2 4.8 0.00 1.40 0.00 91 1012.2
20260507015140 12 91 3.2 6.4 0.00 1.40 0.00 90 1012.0
20260507014037 12 86 3.2 6.4 0.00 1.40 0.00 90 1012.0
20260507013115 13 101 3.2 4.8 0.00 1.40 0.00 90 1011.8
20260507012133 13 102 3.2 6.4 0.00 1.40 0.00 90 1011.8
20260507010025 13 88 3.2 9.7 0.00 1.40 0.00 92 1011.9
20260507005042 13 86 1.6 4.8 0.00 1.40 0.00 92 1012.0
20260507004140 13 82 3.2 6.4 0.00 1.40 0.00 92 1012.1
20260507003117 12 80 3.2 6.4 0.00 1.40 0.00 92 1012.1
20260507002154 12 110 3.2 4.8 0.00 1.40 0.00 92 1012.1
20260507001152 13 89 3.2 4.8 0.00 1.40 0.00 93 1012.1
20260507000129 13 85 3.2 6.4 0.00 1.40 0.00 92 1011.8
20260506235108 13 96 3.2 4.8 0.00 1.40 0.00 92 1011.8
20260506234103 13 96 3.2 9.7 0.00 1.40 0.00 91 1011.7
20260506233142 13 90 1.6 3.2 0.00 1.40 0.00 91 1011.8
20260506232101 13 96 0.0 3.2 0.00 1.40 0.00 91 1011.9
20260506231038 13 84 0.0 3.2 0.00 1.40 0.00 91 1011.7
20260506230036 13 98 1.6 3.2 0.00 1.40 0.00 91 1011.6
20260506225050 13 75 0.0 3.2 0.00 1.40 0.00 92 1011.6
20260506224107 13 95 3.2 4.8 0.00 1.40 0.00 93 1011.6
20260506223024 13 82 1.6 6.4 0.00 1.40 0.00 93 1011.7
20260506222121 13 323 0.0 3.2 0.00 1.40 0.00 93 1011.6
20260506221018 13 344 1.6 3.2 0.00 1.40 0.00 93 1011.8
20260506220035 13 94 0.0 1.6 0.00 1.40 1.40 92 1011.7
20260506215032 13 92 0.0 3.2 0.00 1.40 1.40 92 1011.6
20260506214029 13 90 1.6 3.2 0.00 1.40 1.40 92 1011.6
20260506213026 13 90 4.8 9.7 0.00 1.40 1.40 92 1011.4
20260506212024 13 90 0.0 4.8 0.00 1.40 1.40 93 1011.6
20260506211021 14 93 1.6 4.8 0.00 1.40 1.40 93 1011.5
20260506210040 14 80 4.8 6.4 0.00 1.40 1.40 94 1011.4
20260506205035 14 86 1.6 4.8 0.00 1.40 1.40 94 1011.3
20260506204213 15 89 4.8 11.3 0.00 1.40 1.40 93 1011.3
20260506203030 15 99 3.2 6.4 0.00 1.40 1.40 92 1011.3
20260506202107 15 93 1.6 4.8 0.00 1.40 1.40 92 1011.1
20260506201205 15 86 4.8 9.7 0.00 1.40 1.40 91 1010.9
20260506195039 16 100 4.8 6.4 0.00 1.40 1.40 90 1011.1
20260506194056 16 93 4.8 12.9 0.00 1.40 1.40 89 1011.1
20260506192030 16 79 4.8 9.7 0.00 1.40 1.40 87 1010.9
20260506191027 16 81 4.8 12.9 0.00 1.40 1.40 87 1010.9
20260506190024 16 103 3.2 9.7 0.00 1.40 1.40 87 1010.4
20260506185020 16 114 0.0 3.2 0.00 1.40 1.40 86 1010.2
20260506184057 16 119 1.6 3.2 0.00 1.40 1.40 86 1010.2
20260506183033 17 86 3.2 11.3 0.00 1.40 1.40 85 1010.1
20260506182030 17 95 3.2 11.3 0.00 1.40 1.40 84 1009.8
20260506181027 17 89 1.6 4.8 0.00 1.40 1.40 84 1009.9
20260506180024 18 84 3.2 9.7 0.00 1.40 1.40 82 1009.6
20260506175021 18 95 4.8 9.7 0.00 1.40 1.40 81 1009.3
20260506174138 18 82 8.0 14.5 0.00 1.40 1.40 80 1009.3
20260506173035 18 114 3.2 9.7 0.00 1.40 1.40 79 1009.0
20260506172052 18 94 4.8 20.9 0.00 1.40 1.40 79 1008.8
20260506171030 18 85 3.2 9.7 0.00 1.40 1.40 79 1008.8
20260506170046 18 77 8.0 17.7 0.00 1.40 1.40 77 1008.5
20260506165023 19 78 6.4 16.1 0.00 1.40 1.40 76 1008.4
20260506164101 20 66 8.0 24.1 0.00 1.40 1.40 75 1008.4
20260506163038 19 95 11.3 20.9 0.00 1.40 1.40 75 1008.3
20260506162035 20 96 8.0 25.7 0.00 1.40 1.40 74 1008.3
20260506161113 19 85 9.7 22.5 0.00 1.40 1.40 74 1008.3
20260506160129 20 73 9.7 22.5 0.00 1.40 1.40 74 1008.4
20260506155028 20 79 8.0 20.9 0.00 1.40 1.40 75 1008.4
20260506154024 20 91 8.0 17.7 0.00 1.40 1.40 74 1008.4
20260506153041 19 89 8.0 24.1 0.00 1.40 1.40 74 1008.4
20260506152038 20 82 9.7 22.5 0.00 1.40 1.40 77 1008.5
20260506151136 19 105 4.8 16.1 0.00 1.40 1.40 77 1008.7
20260506150033 19 122 6.4 16.1 0.00 1.40 1.40 80 1008.9
20260506145050 18 61 6.4 17.7 0.00 1.40 1.40 81 1009.0
20260506144028 18 94 6.4 16.1 0.00 1.40 1.40 80 1009.1
20260506143025 18 90 9.7 20.9 0.00 1.40 1.40 80 1009.1
20260506142045 18 98 6.4 20.9 0.00 1.40 1.40 82 1009.3
20260506141020 18 90 8.0 27.4 0.00 1.40 1.40 83 1009.4
20260506135034 18 86 9.7 24.1 0.00 1.40 1.40 84 1009.6
20260506134031 17 84 6.4 12.9 0.00 1.40 1.40 84 1009.8
20260506133029 18 82 8.0 22.5 0.00 1.42 1.40 83 1009.9
20260506132046 18 108 9.7 24.1 0.00 1.42 1.40 83 1010.0
20260506131023 18 83 8.0 27.4 0.00 1.42 1.40 84 1010.0
20260506130019 18 80 8.0 22.5 0.00 1.42 1.40 85 1009.9
20260506125016 18 90 9.7 25.7 0.00 1.42 1.40 83 1010.0
20260506124135 18 75 8.0 16.1 0.00 1.42 1.40 85 1010.0
20260506123112 17 86 8.0 22.5 0.00 1.42 1.40 88 1010.1
20260506122131 17 54 8.0 22.5 0.00 1.42 1.40 87 1010.2
20260506121046 17 75 11.3 27.4 0.00 1.42 1.40 89 1010.2
20260506120023 16 88 11.3 22.5 0.00 1.42 1.40 90 1010.3
20260506115040 16 82 8.0 20.9 0.00 1.42 1.40 91 1010.4
20260506114018 16 89 6.4 20.9 0.00 1.42 1.40 92 1010.5
20260506113135 16 88 8.0 24.1 0.05 1.42 1.40 92 1010.4
20260506112153 16 113 6.4 17.7 0.10 1.42 1.40 93 1010.3
20260506111110 16 97 8.0 17.7 0.10 1.42 1.40 94 1010.3
20260506110027 16 101 4.8 12.9 0.10 1.42 1.40 94 1010.4
20260506105026 16 113 6.4 14.5 0.10 1.42 1.40 96 1010.6
20260506104102 15 88 8.0 22.5 0.10 1.42 1.40 95 1010.9
20260506103120 15 92 6.4 14.5 0.05 1.40 1.35 94 1011.1
20260506102116 15 104 6.4 17.7 0.00 1.32 1.30 93 1010.8
20260506101033 15 68 9.7 24.1 0.00 1.35 1.30 93 1010.7
20260506100050 15 75 12.9 33.8 0.00 1.35 1.30 93 1010.5
20260506095027 15 102 11.3 22.5 0.00 1.35 1.30 93 1010.4
20260506094025 15 92 9.7 25.7 0.00 1.35 1.30 93 1010.5
20260506093042 15 78 12.9 27.4 0.00 1.37 1.30 96 1010.3
20260506092019 15 91 9.7 25.7 0.00 1.37 1.30 97 1010.5
20260506091017 14 75 11.3 22.5 0.03 1.40 1.30 97 1010.5
20260506090034 14 73 11.3 29.0 0.03 1.45 1.30 97 1010.4
20260506085051 14 75 8.0 20.9 0.03 1.52 1.30 98 1010.6
20260506084209 14 98 8.0 27.4 0.03 1.60 1.30 98 1010.6
20260506083126 13 83 6.4 17.7 0.05 1.78 1.30 99 1010.7
20260506082123 13 98 4.8 14.5 0.05 1.91 1.30 99 1010.6
20260506081021 13 109 4.8 9.7 0.05 1.98 1.27 99 1011.2
20260506073130 13 95 4.8 14.5 0.08 2.01 1.24 99 1010.8
20260506072108 13 156 1.6 4.8 0.08 1.98 1.22 99 1010.9
20260506071044 13 116 3.2 6.4 0.13 1.98 1.22 99 1010.9
20260506062131 12 96 3.2 9.7 0.51 1.98 1.17 99 1011.4
20260506061148 12 96 3.2 9.7 0.61 1.96 1.12 99 1011.4
20260506051053 12 129 1.6 6.4 0.38 1.42 0.51 98 1011.7
20260506045026 12 134 3.2 4.8 0.38 1.27 0.38 98 1011.3
20260506044043 12 145 0.0 3.2 0.33 1.22 0.33 98 1011.1
20260506043101 12 344 0.0 3.2 0.25 1.17 0.25 98 1010.9
20260506042018 12 224 0.0 3.2 0.18 1.09 0.18 98 1011.3
20260506041035 12 123 0.0 3.2 0.15 1.04 0.15 98 1011.3
20260506040132 12 152 0.0 3.2 0.03 0.91 0.03 98 1011.2
20260506035029 12 132 0.0 3.2 0.00 0.89 0.00 98 1011.0